Location: Cutler
(25.6150°N, 80.3110°W)
Time: 18:57:29
(UTC-05:00)

UWE-3 - Visible Passes

Search period start: 18 February 2018 00:00
Search period end: 28 February 2018 00:00
Orbit: 586 x 684 km, 97.6° (Epoch: 17 February)

Date Brightness Start Highest point End Pass type
(mag) Time Alt. Az. Time Alt. Az. Time Alt. Az.
18 Feb ? 20:00:49 10° SSW 20:04:47 28° W 20:08:47 10° NW visible
19 Feb ? 18:46:12 10° SE 18:50:25 35° ENE 18:54:38 10° N visible
19 Feb ? 20:24:08 10° SW 20:26:49 15° W 20:29:31 10° WNW visible
20 Feb ? 19:07:40 10° SSE 19:12:17 66° ENE 19:16:53 10° N visible
21 Feb ? 19:29:34 10° S 19:34:12 66° W 19:38:49 10° NNW visible
22 Feb ? 19:51:55 10° SSW 19:56:09 34° W 20:00:23 10° NNW visible
23 Feb ? 18:37:54 10° SE 18:41:51 28° ENE 18:45:47 10° NNE visible
23 Feb ? 20:14:54 10° SW 20:18:10 19° W 20:21:26 10° NW visible
24 Feb ? 18:59:11 10° SSE 19:03:42 52° ENE 19:08:11 10° N visible
25 Feb ? 19:20:55 10° S 19:25:35 83° WSW 19:30:13 10° NNW visible
26 Feb ? 19:43:07 10° S 19:47:32 43° W 19:51:55 10° NNW visible
27 Feb ? 20:05:50 10° SSW 20:09:31 23° W 20:13:11 10° NW visible
